sat.trackr.live / text

‹ back to catalog

2024-153C

NORAD 60747 · 2024-153C

PAYLOAD ACTIVE UNKNOWN

§ Identity

Operator
Country
PRC
Launch date
2024-08-29
Launch site
YSLA
Launch vehicle
Mass (kg)
RCS (m²)

External: N2YO · Heavens-Above · Gunter

§ Orbital elements

Epoch: 2026-09-22T23:20:07.228896Z

Period
93.14 min
Inclination
97.6883°
Eccentricity
0.0008060
Mean motion
15.46140434 rev/d
Perigee alt
422.5 km
Apogee alt
433.5 km
Semi-major
6,806.2 km
B*
5.1225e-4
RAAN
53.8198°
Arg perigee
155.1200°
Mean anomaly
205.0439°
Rev number
11,523

§ Raw data

2024-153C1 60747U 24153C   26265.97230589  .00025089  00000+0  51225-3 0  99942 60747  97.6883  53.8198 0008060 155.1200 205.0439 15.46140434115236

JSON: /api/v1/satellites/60747 · /tle

For live sub-satellite position, see the globe view (requires WebGL).

§ Visibility from observer

Set your observer location to see the next 7 days of passes ≥ 10°. The values pass through the URL so the page stays shareable.

No JS? Fill the form by hand. The geolocation button needs JavaScript.